contact:dominique.lefevre@mio.osupytheas.fr, maurice.libes@osupytheas.fr
Project:EMSO Ligure-ouest http://www.emso-fr.org/EMSO-France
Sensor Aquadopp, line 13 Serial AQD14315 
DOI : "https://doi.org/10.17882/74513; https://doi.org/10.17882/83244" 
Title:EMSO Ligure Ouest : Data ligne ALBATROSS capteur AQUADOPP - deploiement 2021
Id,Date,Profondeur,Latitude,Longitude,X_East,Y_North,Z_Up,Amplitude_X,Amplitude_Y,Amplitude_Z,Batterie,SoundSpeed,Heading,Pitch,Roll,Pressure,Temperature,Speed,Direction
, , m, degrees North, degrees East, m.s-1, m.s-1,m.s-1, 1, 1, 1, Volt, m.s-1, degree, degree, degree, dbar, degree_C, m.s-1, degree
13,2022-08-16T23:30:00,2400.0,42.79,6.0312,0.025,0.002,-0.022,66.0,60.0,65.0,13.0,1504.9,246.4,0.0,-0.4,2393.158,13.34,0.025,85.4
13,2022-08-17T00:00:00,2400.0,42.79,6.0312,0.024,-0.001,0.003,65.0,58.0,61.0,13.0,1504.9,248.4,0.0,-0.3,2393.125,13.34,0.024,92.4
13,2022-08-17T00:30:00,2400.0,42.79,6.0312,0.001,-0.006,0.029,65.0,60.0,60.0,13.0,1504.9,255.7,0.0,-0.4,2393.116,13.34,0.006,170.5
13,2022-08-17T01:00:00,2400.0,42.79,6.0312,0.016,-0.014,0.008,65.0,56.0,60.0,13.0,1504.9,253.9,0.0,-0.4,2393.097,13.34,0.021,131.2
13,2022-08-17T01:30:00,2400.0,42.79,6.0312,0.015,0.006,-0.005,64.0,61.0,61.0,13.0,1504.9,251.0,-0.1,-0.4,2393.071,13.34,0.016,68.2
13,2022-08-17T02:00:00,2400.0,42.79,6.0312,0.003,-0.02,-0.012,65.0,61.0,61.0,13.0,1504.9,249.9,-0.1,-0.4,2393.049,13.34,0.02,171.5
13,2022-08-17T02:30:00,2400.0,42.79,6.0312,0.003,-0.009,-0.008,65.0,58.0,63.0,13.0,1504.9,252.9,-0.1,-0.5,2393.036,13.34,0.009,161.6
13,2022-08-17T03:00:00,2400.0,42.79,6.0312,0.008,0.013,-0.031,64.0,56.0,59.0,13.0,1504.9,256.8,0.0,-0.4,2393.043,13.34,0.015,31.6
13,2022-08-17T03:30:00,2400.0,42.79,6.0312,0.013,0.009,-0.024,64.0,61.0,59.0,13.0,1504.9,257.3,-0.1,-0.5,2393.058,13.34,0.015,55.3
13,2022-08-17T04:00:00,2400.0,42.79,6.0312,0.014,-0.003,-0.004,70.0,58.0,57.0,13.0,1504.9,254.4,-0.1,-0.3,2392.991,13.34,0.014,102.1
13,2022-08-17T04:30:00,2400.0,42.79,6.0312,0.003,0.005,-0.008,66.0,58.0,62.0,13.0,1504.9,257.4,-0.1,-0.5,2393.017,13.34,0.005,31.0
13,2022-08-17T05:00:00,2400.0,42.79,6.0312,0.004,0.012,-0.015,63.0,59.0,61.0,13.0,1504.9,263.9,0.0,-0.4,2393.008,13.34,0.012,18.4
13,2022-08-17T05:30:00,2400.0,42.79,6.0312,0.0,0.009,-0.002,64.0,58.0,58.0,13.0,1504.9,267.8,-0.1,-0.4,2392.991,13.34,0.009,0.0
13,2022-08-17T06:00:00,2400.0,42.79,6.0312,0.012,-0.018,0.006,63.0,61.0,62.0,13.0,1504.9,270.5,0.0,-0.4,2392.983,13.34,0.021,146.3
13,2022-08-17T06:30:00,2400.0,42.79,6.0312,0.009,0.0,-0.007,66.0,63.0,63.0,13.0,1504.9,272.5,0.0,-0.4,2392.979,13.34,0.009,90.0
13,2022-08-17T07:00:00,2400.0,42.79,6.0312,0.021,-0.007,-0.01,65.0,61.0,66.0,13.0,1504.9,270.4,0.0,-0.4,2392.988,13.34,0.022,108.4
13,2022-08-17T07:30:00,2400.0,42.79,6.0312,-0.004,-0.021,-0.01,65.0,60.0,63.0,13.0,1504.9,267.6,-0.1,-0.4,2393.046,13.34,0.021,190.8
13,2022-08-17T08:00:00,2400.0,42.79,6.0312,0.009,0.006,-0.017,69.0,60.0,66.0,13.0,1504.9,264.5,-0.1,-0.3,2393.054,13.34,0.01,56.3
13,2022-08-17T08:30:00,2400.0,42.79,6.0312,0.034,-0.008,0.004,67.0,62.0,62.0,13.0,1504.9,268.6,0.0,-0.4,2393.076,13.34,0.034,103.2
13,2022-08-17T09:00:00,2400.0,42.79,6.0312,0.007,0.026,0.003,63.0,61.0,62.0,13.0,1504.9,264.2,-0.1,-0.4,2393.082,13.34,0.026,15.1
13,2022-08-17T09:30:00,2400.0,42.79,6.0312,0.015,-0.015,-0.021,68.0,57.0,62.0,13.0,1504.9,259.9,-0.2,-0.5,2393.107,13.34,0.021,135.0
13,2022-08-17T10:00:00,2400.0,42.79,6.0312,0.0,-0.003,0.001,66.0,59.0,61.0,13.0,1504.9,256.2,-0.1,-0.4,2393.12,13.34,0.003,180.0
13,2022-08-17T10:30:00,2400.0,42.79,6.0312,0.012,-0.008,0.012,68.0,62.0,62.0,13.0,1504.9,259.1,0.0,-0.5,2393.096,13.34,0.014,123.7
13,2022-08-17T11:00:00,2400.0,42.79,6.0312,0.016,0.011,0.004,63.0,62.0,61.0,13.0,1504.9,268.2,-0.1,-0.4,2393.097,13.34,0.019,55.5
13,2022-08-17T11:30:00,2400.0,42.79,6.0312,0.008,-0.006,0.012,64.0,59.0,61.0,13.0,1504.9,268.3,0.0,-0.4,2393.089,13.34,0.01,126.9
13,2022-08-17T12:00:00,2400.0,42.79,6.0312,0.016,-0.01,-0.019,64.0,60.0,62.0,13.0,1504.9,266.7,-0.1,-0.4,2393.095,13.34,0.018,122.0
13,2022-08-17T13:00:00,2400.0,42.79,6.0312,-0.009,-0.02,0.006,67.0,60.0,61.0,13.0,1504.9,264.4,-0.1,-0.4,2393.053,13.34,0.021,204.2
13,2022-08-17T13:30:00,2400.0,42.79,6.0312,0.009,-0.001,-0.016,67.0,61.0,60.0,13.0,1504.9,262.6,-0.1,-0.4,2393.048,13.34,0.009,96.3
13,2022-08-17T14:00:00,2400.0,42.79,6.0312,0.001,-0.01,-0.009,66.0,60.0,61.0,13.0,1504.9,262.7,-0.1,-0.4,2392.993,13.34,0.01,174.3
13,2022-08-17T14:30:00,2400.0,42.79,6.0312,0.013,0.004,0.042,64.0,60.0,64.0,13.0,1504.9,263.0,-0.1,-0.4,2393.038,13.34,0.013,72.9
13,2022-08-17T15:00:00,2400.0,42.79,6.0312,0.02,-0.009,-0.035,65.0,59.0,61.0,13.0,1504.9,260.2,0.0,-0.3,2393.018,13.34,0.021,114.2
13,2022-08-17T15:30:00,2400.0,42.79,6.0312,0.009,-0.014,-0.002,67.0,62.0,60.0,13.0,1504.9,268.9,-0.1,-0.4,2393.027,13.34,0.016,147.3
13,2022-08-17T16:00:00,2400.0,42.79,6.0312,0.022,0.016,-0.016,66.0,62.0,61.0,13.0,1504.9,274.2,-0.1,-0.5,2393.021,13.34,0.027,54.0
13,2022-08-17T16:30:00,2400.0,42.79,6.0312,0.024,0.003,0.0,78.0,57.0,66.0,13.0,1504.9,276.0,-0.1,-0.4,2392.958,13.34,0.024,82.9
13,2022-08-17T17:00:00,2400.0,42.79,6.0312,0.005,-0.006,-0.035,70.0,63.0,64.0,13.0,1504.9,276.7,-0.1,-0.4,2393.003,13.34,0.007,140.2
13,2022-08-17T17:30:00,2400.0,42.79,6.0312,0.016,-0.012,0.013,70.0,62.0,68.0,13.0,1504.9,284.7,0.0,-0.4,2392.991,13.34,0.02,126.9
13,2022-08-17T18:00:00,2400.0,42.79,6.0312,0.014,-0.019,0.015,68.0,59.0,61.0,13.0,1504.9,288.7,0.0,-0.4,2393.004,13.34,0.023,143.6
13,2022-08-17T18:30:00,2400.0,42.79,6.0312,0.002,-0.003,-0.046,65.0,59.0,60.0,13.0,1504.9,289.7,-0.1,-0.3,2392.967,13.34,0.003,146.3
13,2022-08-17T19:00:00,2400.0,42.79,6.0312,0.015,0.0,0.008,67.0,63.0,63.0,13.0,1504.9,289.3,-0.1,-0.3,2393.022,13.34,0.015,90.0
13,2022-08-17T19:30:00,2400.0,42.79,6.0312,0.005,0.019,0.033,64.0,60.0,62.0,13.0,1504.9,291.3,-0.1,-0.4,2393.039,13.34,0.019,14.7
13,2022-08-17T20:00:00,2400.0,42.79,6.0312,0.02,-0.026,-0.008,69.0,61.0,63.0,13.0,1504.9,287.5,0.0,-0.3,2393.074,13.34,0.032,142.4
13,2022-08-17T20:30:00,2400.0,42.79,6.0312,0.028,0.0,-0.018,65.0,61.0,62.0,13.0,1504.9,287.0,0.0,-0.4,2393.038,13.34,0.028,90.0
13,2022-08-17T21:00:00,2400.0,42.79,6.0312,0.012,0.005,0.039,66.0,57.0,60.0,13.0,1504.9,285.7,-0.1,-0.5,2393.129,13.34,0.013,67.4
13,2022-08-17T21:30:00,2400.0,42.79,6.0312,0.011,-0.002,-0.026,65.0,61.0,63.0,13.0,1504.9,282.2,0.0,-0.4,2393.081,13.34,0.011,100.3
13,2022-08-17T22:00:00,2400.0,42.79,6.0312,0.01,-0.026,-0.022,66.0,59.0,60.0,13.0,1504.9,280.9,0.0,-0.4,2393.117,13.34,0.027,159.0
13,2022-08-17T22:30:00,2400.0,42.79,6.0312,0.017,0.001,0.013,61.0,60.0,60.0,13.0,1504.9,280.6,0.0,-0.4,2393.159,13.34,0.017,86.6
13,2022-08-17T23:00:00,2400.0,42.79,6.0312,0.002,-0.006,-0.032,64.0,60.0,62.0,13.0,1504.9,281.6,0.0,-0.4,2393.109,13.34,0.006,161.6
